Regional Weather Roundup
Issued by NWS Bismarck, ND

Home | Current Version | Previous Version | Text Only | Print | Product List | Glossary On
Versions: 1 2 3 4 5 6 7 8 9 10 11 12 13 14 15 16 17 18 19 20 21 22 23 24 25 26 27 28 29 30 31 32 33 34 35 36 37 38 39 40 41 42 43 44 45 46 47 48 49 50
000
ASUS43 KBIS 190310
RWRBIS

NWR BROADCAST TEXT
NATIONAL WEATHER SERVICE BISMARCK ND
1000 PM CDT MON SEP 18 2017

NOTE: "FAIR" INDICATES FEW OR NO CLOUDS BELOW 12,000 FEET WITH NO
SIGNIFICANT WEATHER AND/OR OBSTRUCTIONS TO VISIBILITY.


CITY           SKY/WX    TMP DP  RH WIND       PRES   REMARKS
WILLISTON      CLOUDY    64  45  49 SE10      29.66F
MINOT          CLEAR     56  49  77 SE9       29.75S
MINOT AFB      CLEAR     55  49  80 SE10      29.73F
BISMARCK       CLEAR     57  49  74 NE6       29.78S
DICKINSON      CLEAR     60  44  55 SE13      29.70F
GARRISON         N/A     58  50  75 E9        29.75F
HETTINGER ARPT CLOUDY    58  41  53 E12       29.74S
JAMESTOWN      PTCLDY    56  52  86 SE7       29.79S
CARRINGTON     FAIR      57  52  82 S3        29.82S
HAZEN          FAIR      61  48  63 SE9       29.76S
LINTON         FAIR      52  45  76 E7        29.80S
MANDAN         MOCLDY    57  48  72 SE9       29.79S
RUGBY          FAIR      52  52 100 E9        29.79S
STANLEY        FAIR      55  48  76 SE10      29.76S
TIOGA          FAIR      59  46  63 SE14      29.72S
WATFORD CITY   FAIR      61  46  59 SE15      29.67F
$$

CITY           SKY/WX    TMP DP  RH WIND       PRES   REMARKS
GRAND FORKS    CLOUDY    58  56  93 SE13      29.82F
GRAND FORKS AF CLEAR     57  55  94 SE9       29.83F
DEVILS LAKE    CLOUDY    56  52  86 E9        29.81S FOG
FARGO          CLOUDY    61  58  90 SE12      29.82F
CANDO          FAIR      54  54 100 E8        29.83S
CAVALIER       FAIR      55  54  94 E6        29.82F
GRAFTON        FAIR      57  57 100 SE8       29.85R
GWINNER        CLEAR     61  61 100 SE6       29.80S
LANGDON        FAIR      54  54 100 E7        29.83S
ROLLA          FAIR      50  50 100 SE7       29.82S
WALHALLA       FAIR     N/A N/A N/A CALM      29.83S
$$

CITY           SKY/WX    TMP DP  RH WIND       PRES   REMARKS
ABERDEEN       MOCLDY    62  57  83 SE7       29.79S
MOBRIDGE       CLEAR     63  47  55 E13       29.74S
BUFFALO          N/A     64  40  41 E15       29.64S
RAPID CITY     CLEAR     59  39  47 CALM      29.73S
GLASGOW        CLOUDY    64  45  49 E8        29.58S
SIDNEY         PTCLDY    64  44  48 CALM      29.63F
WOLF POINT     PTCLDY    65  46  50 NE5       29.59F
GLENDIVE       CLOUDY    62  44  51 E7        29.63F
MILES CITY     CLOUDY    69  34  27 SE9       29.57F
BAKER          CLOUDY    56  41  57 SE12      29.67F
$$

CITY           SKY/WX    TMP DP  RH WIND       PRES   REMARKS
BILLINGS       CLOUDY    64  39  39 NW12      29.61F
GREAT FALLS    LGT RAIN  46  39  76 SW10      29.69R
REGINA         MOCLDY    64  41  42 SE16G22   29.63R
ESTEVAN        MOCLDY    59  48  67 SE12G17   29.70S
$$





USA.gov is the U.S. government's official web portal to all federal, state and local government web resources and services.